26.05.2024;03:00;13
26.05.2024;02:00;13
26.05.2024;01:00;10
25.05.2024;24:00;11
25.05.2024;23:00;9
25.05.2024;22:00;7
25.05.2024;21:00;12
25.05.2024;20:00;6
25.05.2024;19:00;4
25.05.2024;18:00;5
25.05.2024;17:00;4
25.05.2024;16:00;3
25.05.2024;15:00;3
25.05.2024;14:00;3
25.05.2024;13:00;3
25.05.2024;12:00;3
25.05.2024;11:00;5
25.05.2024;10:00;9
25.05.2024;09:00;12
25.05.2024;08:00;15
25.05.2024;07:00;11
25.05.2024;06:00;10
25.05.2024;05:00;10
25.05.2024;04:00;12
25.05.2024;03:00;13
25.05.2024;02:00;13
25.05.2024;01:00;15
24.05.2024;24:00;12
24.05.2024;23:00;11
24.05.2024;22:00;10
24.05.2024;21:00;10
24.05.2024;20:00;6
24.05.2024;19:00;7
24.05.2024;18:00;4
24.05.2024;17:00;4
24.05.2024;16:00;5
24.05.2024;15:00;5
24.05.2024;14:00;5
24.05.2024;13:00;4
24.05.2024;12:00;3
24.05.2024;11:00;3
24.05.2024;10:00;6
24.05.2024;09:00;8
24.05.2024;08:00;7
24.05.2024;07:00;5
24.05.2024;06:00;3
24.05.2024;05:00;3
24.05.2024;04:00;4
24.05.2024;03:00;5
24.05.2024;02:00;3
24.05.2024;01:00;3
23.05.2024;24:00;3
23.05.2024;23:00;3
23.05.2024;22:00;3
23.05.2024;21:00;2
23.05.2024;20:00;2
23.05.2024;19:00;2
23.05.2024;18:00;2
23.05.2024;17:00;2
23.05.2024;16:00;3
23.05.2024;15:00;4
23.05.2024;14:00;4
23.05.2024;13:00;4
23.05.2024;12:00;4
23.05.2024;11:00;4
23.05.2024;10:00;4
23.05.2024;09:00;4
23.05.2024;08:00;4
23.05.2024;07:00;4
23.05.2024;06:00;4
23.05.2024;05:00;5
23.05.2024;04:00;3
23.05.2024;03:00;4
23.05.2024;02:00;5
23.05.2024;01:00;3
22.05.2024;24:00;3
22.05.2024;23:00;4
22.05.2024;22:00;4
22.05.2024;21:00;4
22.05.2024;20:00;3
22.05.2024;19:00;3
22.05.2024;18:00;4
22.05.2024;17:00;4
22.05.2024;16:00;3
22.05.2024;15:00;3
22.05.2024;14:00;3
22.05.2024;13:00;7
22.05.2024;12:00;7
22.05.2024;11:00;9
22.05.2024;10:00;10
22.05.2024;09:00;12
22.05.2024;08:00;12
22.05.2024;07:00;5
22.05.2024;06:00;3
22.05.2024;05:00;3
22.05.2024;04:00;3
22.05.2024;03:00;7
22.05.2024;02:00;10
22.05.2024;01:00;6
21.05.2024;24:00;5
21.05.2024;23:00;7
21.05.2024;22:00;9
21.05.2024;21:00;11
21.05.2024;20:00;7
21.05.2024;19:00;4
21.05.2024;18:00;3
21.05.2024;17:00;2
21.05.2024;16:00;2
21.05.2024;15:00;2
21.05.2024;14:00;2
21.05.2024;13:00;3
21.05.2024;12:00;4
21.05.2024;11:00;4
21.05.2024;10:00;4
21.05.2024;09:00;6
21.05.2024;08:00;9
21.05.2024;07:00;7
21.05.2024;06:00;6
21.05.2024;05:00;5
21.05.2024;04:00;6
21.05.2024;03:00;9
21.05.2024;02:00;6
21.05.2024;01:00;6
